[[{"header":{"parameterUnit":"m.s-1","parameterCategory":1,"la1":30.2991,"la2":30.254,"lo1":-89.0895,"lo2":-89.0444,"dy":0.0017,"dx":0.0017,"nx":28,"ny":28,"refTime":"2023-11-12T09:00:00:Z","depth":0,"parameterNumber":2,"parameterNumberName":"U-component_of_WINDS"},"data":[0,0,0,0,0,0,0,0,0,0,0,0,0,0,0,0,0,0,0,0,0,0,0,0,0,0,0,0,0,0,0,0,0,0,0,0,0,0,0,0,0,0,0,0,0,0,0,0,0,0,0,0,0,0,0,0,0,0,-1.6855,-1.6855,0,-1.6889,-1.689,-1.689,-1.6846,-1.6844,-1.6843,-1.6841,-1.6878,-1.6881,-1.6883,0,0,0,0,0,0,0,0,0,0,0,0,0,-1.6751,-1.6754,-1.6855,-1.6855,-1.6855,-1.6889,-1.689,-1.689,-1.6846,-1.6844,-1.6842,-1.684,-1.6878,-1.688,-1.6883,0,0,0,0,0,0,0,0,0,0,0,0,0,-1.6792,-1.6754,-1.6855,-1.6837,-1.6836,-1.6889,-1.689,-1.689,-1.6846,-1.6844,-1.6842,-1.6839,-1.6877,-1.688,-1.6884,-1.6956,0,0,-1.6895,-1.6897,0,0,0,0,0,0,0,0,-1.679,-1.6796,-1.684,-1.6839,-1.6837,-1.6861,-1.6867,-1.6912,-1.6847,-1.6843,-1.6841,-1.6838,-1.6875,-1.6878,-1.689,-1.6957,-1.6959,-1.6896,-1.6898,-1.69,-1.6901,0,0,0,0,0,0,0,-1.6787,-1.6794,-1.6868,-1.684,-1.6839,-1.6828,-1.6832,-1.6875,-1.6872,-1.6843,-1.684,-1.6844,-1.6874,-1.6887,-1.6891,-1.696,-1.6896,-1.6899,-1.6901,-1.6903,-1.7088,-1.7091,0,0,0,0,0,0,-1.6786,-1.6792,-1.6867,-1.6869,-1.6807,-1.6832,-1.6836,-1.6856,-1.6871,-1.6871,-1.6846,-1.6842,-1.6881,-1.6886,-1.6892,-1.6978,-1.69,-1.6903,-1.6905,-1.7086,-1.7089,-1.7092,0,0,0,0,0,0,-1.6784,-1.6793,-1.6866,-1.683,-1.6838,-1.6837,-1.6859,-1.6858,-1.6871,-1.6874,-1.6873,-1.686,-1.688,-1.6887,-1.694,-1.6979,-1.6905,-1.6908,-1.7082,-1.7086,-1.709,-1.715,0,0,0,0,0,0,-1.6781,-1.6793,-1.682,-1.6831,-1.684,-1.6913,-1.6862,-1.686,-1.6877,-1.6872,-1.6887,-1.6887,-1.6878,-1.6935,-1.6944,-1.6982,-1.6911,-1.7079,-1.7084,-1.7089,-1.7145,-1.7156,-1.7165,0,0,0,0,0,-1.6778,-1.6836,-1.6822,-1.6831,-1.6874,-1.6916,-1.6921,-1.691,-1.688,-1.6908,-1.691,-1.6887,-1.6972,-1.6941,-1.6951,-1.6991,-1.7077,-1.7083,-1.7089,-1.714,-1.7154,-1.7165,0,0,0,0,0,0,-1.683,-1.6837,-1.6821,-1.6884,-1.69,-1.6908,-1.6943,-1.6924,-1.6949,-1.6943,-1.6927,-1.6931,-1.6989,-1.6995,-1.6959,-1.7061,-1.702,-1.7028,-1.7056,-1.7068,-1.7078,-1.7077,-1.6914,0,0,0,0,0,-1.6849,-1.6881,-1.6886,-1.6941,-1.6949,-1.6945,-1.6962,-1.6952,-1.6967,-1.6974,-1.698,-1.6996,-1.7027,-1.7048,-1.7076,-1.7145,-1.7148,-1.7177,-1.7187,-1.7196,-1.7204,-1.7241,-1.7255,-1.7111,-1.7111,-1.7111,0,0,-1.6888,-1.6896,-1.6917,-1.6952,-1.6962,-1.6997,-1.6951,-1.6989,-1.7015,-1.698,-1.7031,-1.7036,-1.7053,-1.7115,-1.7143,-1.7122,-1.7244,-1.7203,-1.721,-1.7214,-1.7249,-1.7263,-1.7275,-1.7115,-1.7115,-1.7114,0,0,-1.6978,-1.6986,-1.7034,-1.7045,-1.7062,-1.7058,-1.7069,-1.7081,-1.7082,-1.7133,-1.7108,-1.7138,-1.7191,-1.7205,-1.7219,-1.7313,-1.7293,-1.7322,-1.7377,-1.7413,-1.7425,-1.7435,-1.747,-1.7483,-1.733,-1.733,-1.733,0,-1.7025,-1.7076,-1.7061,-1.7101,-1.7118,-1.7086,-1.7134,-1.7146,-1.7172,-1.7184,-1.716,-1.7226,-1.7235,-1.73,-1.7323,-1.7335,-1.7348,-1.7322,-1.7424,-1.7434,-1.7443,-1.7477,-1.749,-1.7334,-1.7333,-1.7333,-1.7333,0,-1.7134,-1.717,-1.7206,-1.7231,-1.7251,-1.7295,-1.7287,-1.7309,-1.7296,-1.7295,-1.7348,-1.7357,-1.7388,-1.7402,-1.739,-1.7465,-1.7452,-1.7426,-1.7385,-1.7461,-1.7492,-1.7505,-1.7339,-1.7338,-1.7337,-1.7336,0,0,-1.726,-1.7274,-1.7288,-1.7299,-1.7315,-1.7343,-1.7385,-1.7414,-1.7434,-1.7452,-1.7488,-1.7533,-1.7509,-1.7525,-1.7514,-1.7547,-1.7622,-1.7517,-1.7517,-1.7538,-1.7708,-1.7728,-1.7743,-1.7608,-1.761,-1.7612,-1.7707,0,-1.7351,-1.7425,-1.7412,-1.7484,-1.7518,-1.7487,-1.7525,-1.7539,-1.7539,-1.7567,-1.7567,-1.76,-1.7565,-1.7575,-1.7605,-1.7607,-1.7657,-1.7599,-1.7643,-1.7645,-1.7642,-1.7759,-1.7782,-1.787,-1.7719,-1.7721,-1.7722,0,-1.7468,-1.749,-1.7565,-1.7576,-1.7589,-1.7623,-1.7649,-1.7676,-1.7691,-1.7688,-1.7706,-1.7689,-1.7732,-1.7688,-1.7748,-1.771,-1.7726,-1.773,-1.7733,-1.7738,-1.769,-1.777,-1.7898,-1.7912,-1.7741,-1.7739,-1.7738,0,-1.7554,-1.7602,-1.7654,-1.7664,-1.7677,-1.7702,-1.7708,-1.7721,-1.7739,-1.7761,-1.7773,-1.78,-1.7815,-1.7837,-1.7828,-1.7796,-1.789,-1.7845,-1.7891,-1.7891,-1.7914,-1.7913,-1.8049,-1.7921,-1.7921,-1.7921,-1.7921,0,-1.7659,-1.7707,-1.7693,-1.7725,-1.7778,-1.7762,-1.7815,-1.7818,-1.7829,-1.7862,-1.7837,-1.7868,-1.7853,-1.7883,-1.7876,-1.7928,-1.7934,-1.7935,-1.7933,-1.7938,-1.7939,-1.7951,-1.7945,-1.7924,-1.7924,-1.7923,-1.7922,0,-1.7765,-1.7758,-1.7813,-1.782,-1.7823,-1.7862,-1.7868,-1.7898,-1.7895,-1.7937,-1.7946,-1.7942,-1.7976,-1.7969,-1.8006,-1.8002,-1.8067,-1.8056,-1.8062,-1.806,-1.8107,-1.8104,-1.8257,-1.8277,-1.8135,-1.8136,-1.8138,0,-1.7834,-1.787,-1.7881,-1.7901,-1.7909,-1.7941,-1.7959,-1.7944,-1.7965,-1.7984,-1.8012,-1.8044,-1.8069,-1.8125,-1.8126,-1.8155,-1.8146,-1.8198,-1.815,-1.8155,-1.8149,-1.8148,-1.8152,-1.8208,-1.821,-1.8211,-1.8212,0,-1.7957,-1.7951,-1.7978,-1.8004,-1.8027,-1.8046,-1.8064,-1.8081,-1.8068,-1.8092,-1.8127,-1.8146,-1.8184,-1.8216,-1.8243,-1.825,-1.823,-1.8226,-1.8239,-1.8246,-1.8249,-1.825,-1.809,-1.8224,-1.8223,-1.8222,-1.8221,-1.8221,-1.8048,-1.8079,-1.8091,-1.8122,-1.8134,-1.815,-1.8179,-1.818,-1.8208,-1.8238,-1.8227,-1.8267,-1.8281,-1.8314,-1.8324,-1.8355,-1.8336,-1.8354,-1.8359,-1.8364,-1.8371,-1.8242,-1.836,-1.8359,-1.8359,-1.8359,-1.8359,0,-1.8171,-1.8177,-1.8206,-1.8231,-1.8255,-1.8232,-1.825,-1.8273,-1.8308,-1.8322,-1.8347,-1.8387,-1.8418,-1.8421,-1.845,-1.8474,-1.8466,-1.8483,-1.8482,-1.8485,-1.8385,-1.8372,-1.8489,-1.8489,-1.8489,-1.8489,-1.8489,-1.8489,-1.8238,-1.829,-1.8286,-1.8343,-1.8348,-1.8387,-1.8399,-1.8415,-1.8426,-1.8472,-1.8497,-1.8498,-1.8508,-1.8538,-1.8566,-1.8566,-1.8579,-1.86,-1.8597,-1.8504,-1.8491,-1.8479,-1.8467,-1.8602,-1.8602,-1.8693,-1.8694,-1.8695]},{"header":{"parameterUnit":"m.s-1","parameterCategory":1,"la1":30.2991,"la2":30.254,"lo1":-89.0895,"lo2":-89.0444,"dy":0.0017,"dx":0.0017,"nx":28,"ny":28,"refTime":"2023-11-12T09:00:00:Z","depth":0,"parameterNumber":3,"parameterNumberName":"V-component_of_WINDS"},"data":[0,0,0,0,0,0,0,0,0,0,0,0,0,0,0,0,0,0,0,0,0,0,0,0,0,0,0,0,0,0,0,0,0,0,0,0,0,0,0,0,0,0,0,0,0,0,0,0,0,0,0,0,0,0,0,0,0,0,-3.4259,-3.4259,0,-3.4289,-3.4289,-3.429,-3.4261,-3.426,-3.4259,-3.4258,-3.4286,-3.4287,-3.4289,0,0,0,0,0,0,0,0,0,0,0,0,0,-3.4173,-3.4175,-3.4259,-3.4259,-3.426,-3.4289,-3.4289,-3.429,-3.4261,-3.426,-3.4258,-3.4257,-3.4285,-3.4287,-3.4289,0,0,0,0,0,0,0,0,0,0,0,0,0,-3.4208,-3.4176,-3.4259,-3.4249,-3.4248,-3.4289,-3.4289,-3.429,-3.4262,-3.426,-3.4258,-3.4257,-3.4284,-3.4287,-3.429,-3.434,0,0,-3.4298,-3.4299,0,0,0,0,0,0,0,0,-3.4206,-3.4211,-3.425,-3.425,-3.4249,-3.427,-3.4269,-3.4307,-3.4262,-3.4256,-3.4258,-3.4256,-3.4281,-3.4284,-3.4294,-3.4342,-3.4343,-3.4298,-3.43,-3.4301,-3.4302,0,0,0,0,0,0,0,-3.4203,-3.4209,-3.4271,-3.4251,-3.425,-3.4242,-3.4245,-3.4276,-3.4278,-3.4257,-3.4255,-3.4259,-3.4281,-3.4291,-3.4294,-3.4343,-3.4298,-3.43,-3.4302,-3.4303,-3.4434,-3.4436,0,0,0,0,0,0,-3.4202,-3.4208,-3.427,-3.4272,-3.4223,-3.4245,-3.4248,-3.4265,-3.4278,-3.4278,-3.426,-3.4257,-3.4287,-3.4291,-3.4295,-3.4355,-3.4301,-3.4303,-3.4305,-3.4432,-3.4435,-3.4437,0,0,0,0,0,0,-3.4201,-3.4208,-3.4268,-3.4239,-3.4246,-3.4248,-3.4267,-3.4266,-3.4276,-3.428,-3.428,-3.4271,-3.4286,-3.4291,-3.4329,-3.4356,-3.4305,-3.4307,-3.443,-3.4433,-3.4436,-3.4476,0,0,0,0,0,0,-3.4198,-3.4208,-3.4228,-3.424,-3.4248,-3.4304,-3.4268,-3.4268,-3.4281,-3.4278,-3.429,-3.429,-3.4285,-3.4326,-3.4332,-3.4359,-3.4309,-3.4428,-3.4431,-3.4435,-3.4473,-3.448,-3.4487,0,0,0,0,0,-3.4195,-3.4238,-3.4229,-3.4237,-3.4273,-3.4305,-3.431,-3.4304,-3.4284,-3.4303,-3.4306,-3.429,-3.4352,-3.433,-3.4337,-3.4365,-3.4426,-3.443,-3.4434,-3.447,-3.4479,-3.4487,0,0,0,0,0,0,-3.4228,-3.4239,-3.423,-3.4277,-3.4291,-3.43,-3.4325,-3.4314,-3.4332,-3.4328,-3.4319,-3.4322,-3.4362,-3.4367,-3.4342,-3.4414,-3.4386,-3.4391,-3.441,-3.4419,-3.4425,-3.4424,-3.4311,0,0,0,0,0,-3.4241,-3.4267,-3.4275,-3.4316,-3.4323,-3.4323,-3.4337,-3.4331,-3.4344,-3.4349,-3.4355,-3.4367,-3.4389,-3.4404,-3.4425,-3.4473,-3.4475,-3.4495,-3.4502,-3.4508,-3.4513,-3.4539,-3.4548,-3.445,-3.445,-3.445,0,0,-3.4267,-3.4277,-3.4293,-3.4323,-3.4332,-3.4359,-3.4328,-3.4357,-3.4376,-3.4353,-3.439,-3.4395,-3.4408,-3.4451,-3.4471,-3.4457,-3.4541,-3.4514,-3.4518,-3.452,-3.4544,-3.4554,-3.4562,-3.4453,-3.4453,-3.4452,0,0,-3.4329,-3.4339,-3.4375,-3.4385,-3.44,-3.44,-3.4409,-3.442,-3.4422,-3.4459,-3.4443,-3.4465,-3.4503,-3.4513,-3.4524,-3.4589,-3.4575,-3.4596,-3.4633,-3.4658,-3.4666,-3.4672,-3.4696,-3.4705,-3.4601,-3.4601,-3.4601,0,-3.436,-3.44,-3.4394,-3.4425,-3.4438,-3.4419,-3.4454,-3.4464,-3.4485,-3.4494,-3.4478,-3.4526,-3.4533,-3.4579,-3.4595,-3.4604,-3.4613,-3.4595,-3.4665,-3.4672,-3.4678,-3.4701,-3.4709,-3.4604,-3.4603,-3.4603,-3.4603,0,-3.4437,-3.4466,-3.4492,-3.4514,-3.453,-3.4563,-3.456,-3.4577,-3.4569,-3.457,-3.4608,-3.4616,-3.4638,-3.4649,-3.4641,-3.4693,-3.4684,-3.4667,-3.4638,-3.469,-3.4711,-3.472,-3.4607,-3.4606,-3.4606,-3.4605,0,0,-3.4521,-3.4539,-3.4549,-3.4559,-3.4575,-3.4596,-3.4627,-3.4649,-3.4664,-3.4678,-3.4704,-3.4737,-3.4721,-3.4733,-3.4726,-3.4749,-3.48,-3.4728,-3.4729,-3.4742,-3.4858,-3.4871,-3.4881,-3.4791,-3.4792,-3.4794,-3.4857,0,-3.4584,-3.4641,-3.4635,-3.4688,-3.4714,-3.4696,-3.4723,-3.4735,-3.4737,-3.4758,-3.4759,-3.4782,-3.476,-3.4766,-3.4788,-3.479,-3.4823,-3.4785,-3.4814,-3.4815,-3.4812,-3.4892,-3.4906,-3.4966,-3.4865,-3.4866,-3.4867,0,-3.4665,-3.4684,-3.474,-3.4752,-3.4762,-3.4787,-3.4807,-3.4828,-3.484,-3.484,-3.4853,-3.4842,-3.4873,-3.4843,-3.4885,-3.4859,-3.487,-3.4873,-3.4875,-3.4878,-3.4845,-3.4898,-3.4985,-3.4994,-3.488,-3.4879,-3.4878,0,-3.4722,-3.4761,-3.4799,-3.4808,-3.4822,-3.484,-3.4847,-3.4858,-3.4872,-3.4888,-3.4897,-3.4917,-3.4928,-3.4944,-3.4938,-3.4917,-3.4981,-3.4951,-3.4981,-3.4982,-3.4996,-3.4995,-3.5087,-3.5003,-3.5003,-3.5003,-3.5002,0,-3.4793,-3.4828,-3.4825,-3.4848,-3.4887,-3.488,-3.4917,-3.4921,-3.4931,-3.4955,-3.494,-3.4962,-3.4954,-3.4975,-3.4971,-3.5006,-3.5011,-3.5011,-3.501,-3.5013,-3.5013,-3.5021,-3.5016,-3.5005,-3.5004,-3.5004,-3.5004,0,-3.4862,-3.4862,-3.4903,-3.4913,-3.4916,-3.4944,-3.4952,-3.4974,-3.4974,-3.5004,-3.5011,-3.5011,-3.5035,-3.5031,-3.5058,-3.5055,-3.5099,-3.5093,-3.5096,-3.5094,-3.5125,-3.5122,-3.5225,-3.5238,-3.5145,-3.5146,-3.5147,0,-3.4908,-3.4935,-3.4948,-3.4963,-3.4972,-3.4996,-3.501,-3.5004,-3.5019,-3.5035,-3.5055,-3.5078,-3.5096,-3.5136,-3.5138,-3.5158,-3.5152,-3.5186,-3.5155,-3.5157,-3.5153,-3.5152,-3.5154,-3.5193,-3.5194,-3.5195,-3.5195,0,-3.499,-3.4988,-3.501,-3.5031,-3.5049,-3.5066,-3.508,-3.5093,-3.5088,-3.5106,-3.5131,-3.5145,-3.5173,-3.5196,-3.5215,-3.522,-3.5207,-3.5205,-3.5213,-3.5217,-3.5218,-3.5218,-3.5113,-3.5203,-3.5202,-3.5202,-3.5201,-3.5201,-3.5049,-3.5072,-3.5085,-3.5109,-3.512,-3.5134,-3.5155,-3.5159,-3.518,-3.5203,-3.5197,-3.5225,-3.5236,-3.5261,-3.5268,-3.529,-3.5277,-3.5289,-3.5292,-3.5295,-3.5299,-3.5214,-3.5293,-3.5293,-3.5293,-3.5292,-3.5292,0,-3.513,-3.5138,-3.516,-3.5182,-3.5201,-3.5188,-3.5203,-3.522,-3.5245,-3.5257,-3.5276,-3.5305,-3.5327,-3.533,-3.5351,-3.5368,-3.5362,-3.5373,-3.5372,-3.5374,-3.5309,-3.53,-3.5377,-3.5377,-3.5377,-3.5377,-3.5377,-3.5377,-3.5174,-3.5213,-3.5212,-3.5255,-3.5262,-3.5291,-3.5301,-3.5313,-3.5323,-3.5356,-3.5375,-3.5377,-3.5386,-3.5407,-3.5426,-3.5427,-3.5435,-3.5449,-3.5447,-3.5387,-3.5378,-3.537,-3.5362,-3.5451,-3.5451,-3.551,-3.551,-3.5511]}]]